TimeEDT,TemperatureF,Dew PointF,Humidity,Sea Level PressureIn,VisibilityMPH,Wind Direction,Wind SpeedMPH,Gust SpeedMPH,PrecipitationIn,Events,Conditions,WindDirDegrees,DateUTC
12:14 AM,59.0,57.2,94,30.06,0.2,East,6.9,-,N/A,Fog,Fog,80,2013-10-05 04:14:00
12:35 AM,59.0,57.0,93,30.07,0.2,East,9.2,-,N/A,Fog,Fog,80,2013-10-05 04:35:00
12:55 AM,57.9,55.9,93,30.06,0.2,East,9.2,-,N/A,Fog,Fog,90,2013-10-05 04:55:00
1:14 AM,57.7,55.8,93,30.05,0.2,East,10.4,-,N/A,Fog,Fog,90,2013-10-05 05:14:00
1:35 AM,56.7,54.5,92,30.05,0.2,East,9.2,-,N/A,Fog,Fog,80,2013-10-05 05:35:00
1:55 AM,56.5,54.5,93,30.05,0.2,East,9.2,-,N/A,Fog,Fog,90,2013-10-05 05:55:00
2:14 AM,56.5,54.5,93,30.05,0.5,East,8.1,-,N/A,Fog,Fog,80,2013-10-05 06:14:00
2:35 AM,56.5,54.5,93,30.05,1.0,East,10.4,-,N/A,,Overcast,90,2013-10-05 06:35:00
2:55 AM,56.5,54.5,93,30.04,0.8,East,8.1,-,N/A,,Overcast,90,2013-10-05 06:55:00
3:14 AM,56.5,54.5,93,30.03,0.8,East,10.4,-,N/A,,Overcast,90,2013-10-05 07:14:00
3:35 AM,56.5,54.5,93,30.04,1.2,East,9.2,-,N/A,,Overcast,90,2013-10-05 07:35:00
3:55 AM,56.5,54.5,93,30.04,1.0,East,6.9,-,N/A,,Overcast,90,2013-10-05 07:55:00
4:14 AM,56.5,54.5,93,30.05,1.0,East,9.2,-,N/A,,Overcast,90,2013-10-05 08:14:00
4:35 AM,56.5,54.5,93,30.05,1.5,East,8.1,-,N/A,,Overcast,90,2013-10-05 08:35:00
4:54 AM,56.5,54.5,93,30.04,2.5,East,11.5,18.4,N/A,Rain,Light Rain,90,2013-10-05 08:54:00
5:15 AM,56.5,54.5,93,30.03,2.5,East,10.4,-,N/A,Rain,Rain,80,2013-10-05 09:15:00
5:35 AM,56.5,54.5,93,30.03,3.0,East,9.2,-,N/A,Rain,Light Rain,80,2013-10-05 09:35:00
5:54 AM,56.5,54.5,93,30.02,4.0,East,11.5,18.4,N/A,,Overcast,100,2013-10-05 09:54:00
6:15 AM,56.5,54.5,93,30.03,4.0,East,12.7,16.1,N/A,Rain,Light Rain,100,2013-10-05 10:15:00
6:35 AM,56.5,54.5,93,30.03,7.0,East,13.8,18.4,N/A,,Overcast,100,2013-10-05 10:35:00
6:54 AM,56.5,54.5,93,30.02,10.0,East,12.7,-,N/A,,Overcast,90,2013-10-05 10:54:00
7:15 AM,56.5,54.5,93,30.03,10.0,East,10.4,-,N/A,Rain,Light Rain,90,2013-10-05 11:15:00
7:35 AM,56.5,54.5,93,30.03,10.0,NE,6.9,-,N/A,Rain,Light Rain,50,2013-10-05 11:35:00
7:54 AM,56.5,54.5,93,30.05,10.0,East,8.1,-,N/A,Rain,Light Rain,80,2013-10-05 11:54:00
8:15 AM,56.5,54.1,92,30.06,7.0,NE,5.8,-,N/A,Rain,Heavy Rain,50,2013-10-05 12:15:00
8:35 AM,56.5,54.1,92,30.05,10.0,East,10.4,-,N/A,Rain,Rain,100,2013-10-05 12:35:00
8:54 AM,56.5,54.1,92,30.05,10.0,NNE,6.9,-,N/A,,Light Drizzle,30,2013-10-05 12:54:00
9:15 AM,56.5,54.1,92,30.04,10.0,East,10.4,-,N/A,,Overcast,80,2013-10-05 13:15:00
9:35 AM,56.5,54.0,91,30.03,10.0,East,10.4,-,N/A,,Overcast,80,2013-10-05 13:35:00
9:54 AM,56.5,54.0,91,30.03,10.0,East,9.2,-,N/A,,Overcast,90,2013-10-05 13:54:00
10:15 AM,56.5,53.8,91,30.04,1.0,ENE,6.9,-,N/A,Rain,Rain,60,2013-10-05 14:15:00
10:35 AM,59.0,56.3,91,30.02,10.0,East,10.4,-,N/A,,Overcast,90,2013-10-05 14:35:00
10:54 AM,59.0,56.3,91,30.02,10.0,East,12.7,17.3,N/A,,Overcast,100,2013-10-05 14:54:00
11:15 AM,59.0,55.9,90,30.01,10.0,East,13.8,17.3,N/A,,Overcast,100,2013-10-05 15:15:00
11:35 AM,59.0,55.9,90,30.00,10.0,East,10.4,16.1,N/A,,Overcast,100,2013-10-05 15:35:00
11:54 AM,59.4,56.3,90,29.98,10.0,East,15.0,-,N/A,,Overcast,100,2013-10-05 15:54:00
12:15 PM,61.7,58.3,89,29.98,10.0,ESE,11.5,16.1,N/A,,Overcast,110,2013-10-05 16:15:00
12:35 PM,61.7,58.3,89,29.98,10.0,ESE,12.7,-,N/A,,Overcast,110,2013-10-05 16:35:00
12:54 PM,61.7,58.1,88,29.99,10.0,ESE,9.2,-,N/A,,Overcast,110,2013-10-05 16:54:00
1:15 PM,61.7,58.3,89,29.98,10.0,ESE,10.4,-,N/A,,Overcast,110,2013-10-05 17:15:00
1:35 PM,61.7,58.1,88,29.98,10.0,ESE,8.1,-,N/A,,Overcast,120,2013-10-05 17:35:00
1:54 PM,62.6,58.6,87,29.98,10.0,SE,11.5,16.1,N/A,,Overcast,130,2013-10-05 17:54:00
2:15 PM,62.6,59.2,89,29.97,10.0,ESE,11.5,-,N/A,,Overcast,120,2013-10-05 18:15:00
2:35 PM,62.6,59.0,88,29.96,10.0,SE,11.5,-,N/A,,Overcast,130,2013-10-05 18:35:00
2:54 PM,62.6,58.8,87,29.94,10.0,ESE,15.0,-,N/A,,Overcast,120,2013-10-05 18:54:00
3:15 PM,61.7,58.3,89,29.94,10.0,SE,10.4,19.6,N/A,,Overcast,130,2013-10-05 19:15:00
3:35 PM,61.7,58.5,89,29.93,5.0,ESE,10.4,18.4,N/A,,Overcast,110,2013-10-05 19:35:00
3:54 PM,61.7,58.6,90,29.94,5.0,ESE,10.4,-,N/A,,Overcast,120,2013-10-05 19:54:00
4:15 PM,61.7,58.6,90,29.93,7.0,ESE,13.8,19.6,N/A,,Overcast,120,2013-10-05 20:15:00
4:34 PM,62.6,59.5,90,29.93,10.0,ESE,10.4,16.1,N/A,,Overcast,120,2013-10-05 20:34:00
4:55 PM,62.4,59.4,90,29.92,10.0,ESE,13.8,-,N/A,,Overcast,120,2013-10-05 20:55:00
5:15 PM,62.2,59.4,90,29.92,10.0,ESE,10.4,-,N/A,,Overcast,120,2013-10-05 21:15:00
5:34 PM,62.4,59.5,90,29.91,10.0,ESE,8.1,-,N/A,,Overcast,110,2013-10-05 21:34:00
5:55 PM,62.1,59.2,90,29.91,3.0,ESE,10.4,-,N/A,,Overcast,110,2013-10-05 21:55:00
6:15 PM,62.1,59.4,91,29.90,4.0,ESE,9.2,-,N/A,,Overcast,110,2013-10-05 22:15:00
6:34 PM,62.1,59.5,91,29.90,3.0,ESE,10.4,-,N/A,,Overcast,110,2013-10-05 22:34:00
6:55 PM,62.1,59.5,91,29.90,1.5,ESE,9.2,-,N/A,Rain,Light Rain,110,2013-10-05 22:55:00
7:15 PM,62.2,59.9,92,29.89,1.8,ESE,9.2,-,N/A,,Light Drizzle,110,2013-10-05 23:15:00
7:34 PM,62.2,59.9,92,29.89,1.5,East,6.9,-,N/A,,Overcast,100,2013-10-05 23:34:00
7:55 PM,62.6,60.1,91,29.89,1.2,East,9.2,-,N/A,,Overcast,100,2013-10-05 23:55:00
8:15 PM,62.6,60.3,92,29.88,1.2,East,10.4,-,N/A,,Overcast,90,2013-10-06 00:15:00
8:34 PM,62.6,60.3,92,29.87,1.2,East,10.4,-,N/A,,Overcast,100,2013-10-06 00:34:00
8:55 PM,62.8,60.4,92,29.87,0.8,East,10.4,-,N/A,,Overcast,100,2013-10-06 00:55:00
9:14 PM,62.8,60.8,93,29.88,1.0,East,10.4,16.1,N/A,,Overcast,100,2013-10-06 01:14:00
9:35 PM,62.8,60.8,93,29.87,0.8,East,9.2,16.1,N/A,,Overcast,100,2013-10-06 01:35:00
9:55 PM,62.8,60.8,93,29.86,0.8,East,10.4,-,N/A,,Overcast,100,2013-10-06 01:55:00
10:14 PM,62.8,60.8,93,29.86,0.8,ESE,11.5,-,N/A,,Overcast,110,2013-10-06 02:14:00
10:35 PM,63.0,60.8,93,29.85,4.0,East,8.1,-,N/A,,Overcast,100,2013-10-06 02:35:00
10:55 PM,64.0,61.9,93,29.84,10.0,East,8.1,-,N/A,,Overcast,100,2013-10-06 02:55:00
11:14 PM,64.0,61.7,92,29.83,5.0,East,8.1,-,N/A,,Overcast,100,2013-10-06 03:14:00
11:35 PM,64.0,61.7,92,29.83,2.5,SE,5.8,-,N/A,Rain,Rain,130,2013-10-06 03:35:00
11:54 PM,64.0,61.7,92,29.83,3.0,ESE,8.1,-,N/A,Rain,Heavy Rain,120,2013-10-06 03:54:00